Simultaneous Nadir Overpasses (SNOs) Predictions

Prediction of SNOs between GOES-15 and TERRA Satellite Orbit:

Table of predicted SNOs for the next 14.0 days since TLE Epoch: 7/15/2024
Index Date Time (GOES-15) GOES-15 Lat,Lon TERRA Lat,Lon Distance(km) Time Diff (sec)
1 07/15/2024 17:25:42 0.07, 61.18 0.76, 64.45 371.48 80
2 07/16/2024 05:48:15 -0.03, 61.12 0.31, 59.62 170.54 80
3 07/18/2024 05:28:05 -0.05, 61.13 -0.64, 63.84 307.96 80
4 07/18/2024 17:50:45 0.00, 61.20 -0.45, 58.98 251.86 80
5 07/20/2024 17:30:34 0.03, 61.22 0.47, 63.20 226.02 80
6 07/21/2024 05:53:07 0.02, 61.15 0.58, 58.37 316.03 80
7 07/23/2024 05:32:55 -0.01, 61.18 -0.31, 62.60 161.48 80
8 07/23/2024 17:55:34 -0.03, 61.25 -0.76, 57.74 398.64 80
9 07/25/2024 17:35:22 -0.01, 61.27 0.11, 61.98 79.14 80
10 07/26/2024 05:57:54 0.05, 61.21 0.92, 57.14 462.70 80
11 07/28/2024 05:37:41 0.03, 61.24 0.02, 61.37 14.92 80
